Location: Sihaung
(22.8641°N, 94.0549°E)
Time: 02:29:20
(UTC+00:00)

Okean 1-7 - Pass Details

Date: 03 March 2021
Orbit: 589 x 619 km, 82.5° (Epoch: 13 April)

Event Time Altitude Azimuth Distance (km) Brightness Sun altitude
Rises 13:13:47 0° 2° (N) 2,868 6.5 -20.5°
Reaches altitude 10° 13:16:04 10° 7° (N) 1,957 5.6 -21.1°
Enters shadow 13:18:01 25° 19° (NNE) 1,233 4.4 -21.5°
